User: anonymous   Login
Location: Theydon Bois
(51.6750°N, 0.1050°E)
Time: 00:52:56
(UTC+01:00)
Language:

Cosmos 2151 - Orbit

View from above orbital plane
View from above orbital plane
View from above satellite
View from above satellite

Ground track
Ground track

The orbit data is extracted from the following two-line orbital elements,

1 21422U 91042A   17291.54591769 +.00000236 +00000-0 +20820-4 0  9990
2 21422 082.4980 129.0679 0012902 239.8953 120.0988 14.91876840405815
Epoch (UTC): 18 October 2017 13:06:07
Eccentricity: 0.0012902
inclination: 82.4980°
perigee height: 583 km
apogee height: 601 km
right ascension of ascending node: 129.0679°
argument of perigee: 239.8953°
revolutions per day: 14.91876840
mean anomaly at epoch: 120.0988°
orbit number at epoch: 40581

The dashed part of the orbit path shows where the satellite is in the earth's shadow,  

DLR